Simultaneous Nadir Overpasses (SNOs) Predictions

Prediction of SNOs between GOES-16 and AQUA Satellite Orbit:

Table of predicted SNOs for the next 14.0 days since TLE Epoch: 5/25/2024
Index Date Time (GOES-16) GOES-16 Lat,Lon AQUA Lat,Lon Distance(km) Time Diff (sec)
1 05/25/2024 06:56:17 -0.01, -75.21 -0.62, -72.28 333.09 80
2 05/25/2024 19:19:14 0.00, -75.20 -0.43, -77.19 225.80 80
3 05/27/2024 19:00:07 0.01, -75.21 0.47, -73.17 232.61 80
4 05/28/2024 07:22:55 -0.00, -75.22 0.63, -78.03 321.01 80
5 05/30/2024 07:03:47 -0.00, -75.23 -0.28, -74.02 138.75 80
6 05/30/2024 19:26:44 -0.00, -75.23 -0.81, -78.92 419.69 80
7 06/01/2024 19:07:34 -0.00, -75.25 0.05, -74.88 41.61 80
8 06/04/2024 07:13:52 -0.00, -75.29 0.08, -75.73 49.14 80
9 06/06/2024 06:54:40 -0.01, -75.32 -0.78, -71.68 413.59 80
10 06/06/2024 19:17:37 0.00, -75.32 -0.25, -76.59 144.29 80
